Regional Weather Roundup
Issued by NWS

Home | Current Version | Previous Version | Graphics & Text | Print | Product List | Glossary On
Versions: 1 2 3 4 5 6 7 8 9 10 11 12 13 14 15 16 17 18 19 20 21 22 23 24 25 26 27 28 29 30 31 32 33 34 35 36 37 38 39 40 41 42 43 44 45 46 47 48 49 50
000
ASUS43 KIND 231309
RWRIN

WEATHER ROUNDUP FOR INDIANA
NATIONAL WEATHER SERVICE INDIANAPOLIS IN
800 AM EST MON JAN 23 2017

NOTE: "FAIR" INDICATES FEW OR NO CLOUDS BELOW 12,000 FEET WITH NO
SIGNIFICANT WEATHER AND/OR OBSTRUCTIONS TO VISIBILITY.

* - STATION DOES NOT REPORT WEATHER SUCH AS PRECIPITATION OR FOG.

+ - STATION NOT QUALITY CONTROLLED BY THE NATIONAL WEATHER SERVICE.
    USE DATA WITH CAUTION...ESPECIALLY DEWPOINT AND RELATIVE
    HUMIDITY OBSERVATIONS.

INZ001>003-010>013-019-020-231400-
NORTHWEST INDIANA

CITY           SKY/WX    TMP DP  RH WIND       PRES   REMARKS
GARY /AIRPORT/ CLOUDY    39  36  87 NW16      29.74R
KNOX *+        CLOUDY    37  32  81 N16       29.68R
LA PORTE +     CLOUDY    37  37 100 N16G22    29.69S FOG
MICHIGAN CITY+ CLOUDY    36  36 100 N10       29.72R
MONTICELLO +   CLOUDY    39  37  95 N13G22    29.66R
RENSSELAER +   CLOUDY    36  36 100 NW12G21   29.69S FOG
VALPARAISO     CLOUDY    38  37  97 N14G20    29.70R FOG

$$

LMZ046-743>745-231400-
SOUTHERN LAKE MICHIGAN

STATION/POSITION TIME  TEMP    WIND        PRES    WAVE
                       AIR SEA DIR/SP/G            HT
                 (UTC) (F)     (DEG/KT/KT) (MB)    (FT)
BURNS HARBOR     1240   36     350/ 11/ 14 1007.1R
MICHIGAN CITY    1240   36     330/ 19/ 21   N/A

$$

INZ004-005-014>016-021>024-231400-
NORTH CENTRAL INDIANA

CITY           SKY/WX    TMP DP  RH WIND       PRES   REMARKS
ELKHART        FOG       39  39 100 N12       29.68R VSB 1
GOSHEN         CLOUDY    42  39  89 N10       29.66R FOG
LOGANSPORT +   CLOUDY    41  39  93 N16       29.66R
PERU/GRISSOM   CLOUDY    42  42 100 N13       29.62R
ROCHESTER +    CLOUDY    43  43 100 N13G20    29.66R
SOUTH BEND     CLOUDY    38  38 100 N13       29.68R FOG
WARSAW +       CLOUDY    41  39  93 N10       29.65R FOG

$$

INZ006>009-017-018-025>027-231400-
NORTHEAST INDIANA

CITY           SKY/WX    TMP DP  RH WIND       PRES   REMARKS
ANGOLA *+      CLOUDY    39  30  70 VRB3      29.63R
AUBURN +       CLOUDY    43  41  93 N10       29.63R FOG
FORT WAYNE     CLOUDY    44  42  93 N14       29.62R FOG
HUNTINGTON +   CLOUDY    42  41  96 N13       29.61R FOG
KENDALLVILLE + CLOUDY    41  41 100 N10       29.63R FOG

$$

INZ028-029-035-036-043>045-051>053-231400-
WEST CENTRAL INDIANA

CITY           SKY/WX    TMP DP  RH WIND       PRES   REMARKS
CRAWFORDSVL +  CLOUDY    38  38 100 N14G20    29.66R FOG
GREENCASTLE +  CLOUDY    39  39 100 N17G23    29.65R FOG
LAFAYETTE      CLOUDY    39  38  96 N16       29.67R
TERRE HAUTE    CLOUDY    42  38  85 N14G26    29.65R

$$

INZ030>032-037>040-046>048-054>057-064-065-231400-
CENTRAL INDIANA

CITY           SKY/WX    TMP DP  RH WIND       PRES   REMARKS
ANDERSON       CLOUDY    45  45 100 NW17      29.60  FOG
CP ATTERBURY + CLOUDY    45  43  93 N16G23    29.60R
COLUMBUS       CLOUDY    45  45 100 N18G25    29.58R FOG
FISHERS *+     CLOUDY    41  41 100 N8        29.62
FRANKFORT +    CLOUDY    42  42  98 N14G23    29.66R FOG
GREENWOOD *+   CLOUDY    44  44 100 N13       29.61R
INDIANAPOLIS   DRZL/FOG  42  42 100 N12       29.62R VSB 3/4
-EAGLE CREEK   CLOUDY    42  41  96 N14       29.62R FOG
KOKOMO +       LGT RAIN  42  42 100 N15       29.64R FOG
MARION +       CLOUDY    43  43 100 N15G21    29.62R FOG
MT COMFORT *+  CLOUDY    43  43 100 N18G24    29.61R
SHELBYVILLE    CLOUDY    46  43  89 N20G29    29.57R FOG
ZIONSVILLE +   CLOUDY    40  40 100 N13       29.63R FOG

$$

INZ033-034-041-042-049-050-058-059-231400-
EAST CENTRAL INDIANA

CITY           SKY/WX    TMP DP  RH WIND       PRES   REMARKS
MUNCIE         CLOUDY    47  45  93 N14       29.59R FOG

$$

INZ060-061-067>069-081>083-085>088-231400-
SOUTHWEST INDIANA

CITY           SKY/WX    TMP DP  RH WIND       PRES   REMARKS
EVANSVILLE     CLOUDY    44  39  82 NW14G22   29.64R HAZE
HUNTINGBURG *+ CLOUDY    43  41  93 NW17G23   29.62R FOG
WASHINGTON +   CLOUDY    42  40  93 N16       29.64R

$$

INZ062-063-066-070>080-084-089>092-231400-
SOUTH CENTRAL AND SOUTHEAST INDIANA

CITY           SKY/WX    TMP DP  RH WIND       PRES   REMARKS
BLOOMINGTON    CLOUDY    42  40  92 N17G24    29.61R FOG
MADISON *+     CLOUDY    50  46  87 NW16G24   29.53R
NORTH VERNON + CLOUDY   N/A N/A N/A NW14G21   29.53R HAZE
SEYMOUR +      CLOUDY    48  46  93 NW18G25   29.55R FOG

$$




USA.gov is the U.S. government's official web portal to all federal, state and local government web resources and services.